| time (UTC) | temp C | wind direction | speed KPH | gust KPH | rain 1hr cm | rain 24hr cm | rain mn cm | humidity % | barometer mb |
| 20260508181541 | 12 | 53 | 19.3 | 22.5 | 0.00 | 0.86 | 0.00 | 55 | 1001.7 |
| 20260508180030 | 11 | 68 | 14.5 | 22.5 | 0.00 | 0.86 | 0.00 | 58 | 1002.1 |
| 20260508174531 | 11 | 53 | 9.7 | 25.7 | 0.00 | 0.86 | 0.00 | 58 | 1002.0 |
| 20260508173028 | 11 | 55 | 19.3 | 25.7 | 0.00 | 0.86 | 0.00 | 59 | 1002.2 |
| 20260508171526 | 10 | 57 | 17.7 | 24.1 | 0.00 | 0.86 | 0.00 | 66 | 1002.3 |
| 20260508170023 | 10 | 43 | 14.5 | 17.7 | 0.00 | 0.86 | 0.00 | 68 | 1002.7 |
| 20260508164522 | 10 | 34 | 16.1 | 19.3 | 0.00 | 0.86 | 0.00 | 69 | 1002.6 |
| 20260508163021 | 10 | 46 | 16.1 | 20.9 | 0.00 | 0.86 | 0.00 | 71 | 1002.6 |
| 20260508161534 | 9 | 28 | 9.7 | 14.5 | 0.00 | 0.86 | 0.00 | 76 | 1002.4 |
| 20260508160018 | 10 | 33 | 9.7 | 17.7 | 0.00 | 0.86 | 0.00 | 74 | 1002.4 |
| 20260508154520 | 9 | 42 | 9.7 | 14.5 | 0.00 | 0.86 | 0.00 | 76 | 1002.7 |
| 20260508153030 | 10 | 41 | 14.5 | 19.3 | 0.00 | 0.86 | 0.00 | 74 | 1002.5 |
| 20260508151514 | 10 | 51 | 16.1 | 19.3 | 0.00 | 0.86 | 0.00 | 75 | 1002.4 |
| 20260508150014 | 10 | 57 | 16.1 | 24.1 | 0.00 | 0.86 | 0.00 | 75 | 1002.4 |
| 20260508144511 | 10 | 49 | 17.7 | 22.5 | 0.00 | 0.86 | 0.00 | 76 | 1002.6 |
| 20260508143009 | 10 | 40 | 19.3 | 22.5 | 0.00 | 0.86 | 0.00 | 76 | 1002.5 |
| 20260508141508 | 9 | 54 | 17.7 | 22.5 | 0.00 | 0.86 | 0.00 | 81 | 1002.6 |
| 20260508140007 | 9 | 39 | 16.1 | 19.3 | 0.00 | 0.86 | 0.00 | 83 | 1002.8 |
| 20260508134503 | 9 | 34 | 12.9 | 20.9 | 0.00 | 0.86 | 0.00 | 84 | 1003.1 |
| 20260508133105 | 9 | 63 | 8.0 | 17.7 | 0.00 | 0.86 | 0.00 | 87 | 1003.3 |
| 20260508131557 | 8 | 57 | 11.3 | 16.1 | 0.00 | 0.86 | 0.00 | 89 | 1003.4 |
| 20260508130057 | 7 | 50 | 4.8 | 14.5 | 0.00 | 0.86 | 0.00 | 92 | 1003.2 |
| 20260508124555 | 7 | 55 | 8.0 | 12.9 | 0.00 | 0.86 | 0.00 | 93 | 1003.0 |
| 20260508123054 | 7 | 48 | 11.3 | 17.7 | 0.00 | 0.86 | 0.00 | 93 | 1003.1 |
| 20260508121552 | 7 | 68 | 8.0 | 16.1 | 0.00 | 0.86 | 0.00 | 94 | 1003.3 |
| 20260508120100 | 6 | 42 | 14.5 | 17.7 | 0.00 | 0.86 | 0.00 | 95 | 1003.1 |
| 20260508114559 | 6 | 47 | 6.4 | 11.3 | 0.00 | 0.86 | 0.00 | 96 | 1003.6 |
| 20260508113050 | 6 | 49 | 4.8 | 9.7 | 0.00 | 0.86 | 0.00 | 97 | 1003.6 |
| 20260508111647 | 6 | 73 | 0.0 | 6.4 | 0.00 | 0.86 | 0.00 | 97 | 1003.4 |
| 20260508110049 | 6 | 30 | 1.6 | 4.8 | 0.00 | 0.86 | 0.00 | 97 | 1003.4 |
| 20260508104545 | 6 | 33 | 4.8 | 6.4 | 0.00 | 0.86 | 0.00 | 97 | 1003.5 |
| 20260508103048 | 5 | 43 | 3.2 | 6.4 | 0.00 | 0.86 | 0.00 | 97 | 1003.9 |
| 20260508101543 | 5 | 40 | 4.8 | 8.0 | 0.00 | 0.86 | 0.00 | 98 | 1003.7 |
| 20260508100059 | 5 | 46 | 6.4 | 11.3 | 0.00 | 0.86 | 0.00 | 98 | 1003.6 |
| 20260508094542 | 5 | 56 | 6.4 | 16.1 | 0.00 | 0.86 | 0.00 | 98 | 1003.6 |
| 20260508093040 | 5 | 47 | 8.0 | 16.1 | 0.00 | 0.86 | 0.00 | 98 | 1003.4 |
| 20260508091549 | 5 | 68 | 8.0 | 17.7 | 0.00 | 0.86 | 0.00 | 97 | 1003.3 |
| 20260508090041 | 6 | 61 | 11.3 | 17.7 | 0.00 | 0.86 | 0.00 | 98 | 1003.3 |
| 20260508084532 | 6 | 53 | 12.9 | 17.7 | 0.00 | 0.89 | 0.00 | 98 | 1003.2 |
| 20260508083031 | 6 | 101 | 4.8 | 14.5 | 0.00 | 0.89 | 0.00 | 98 | 1003.2 |
| 20260508081531 | 6 | 65 | 4.8 | 20.9 | 0.00 | 0.89 | 0.00 | 98 | 1002.8 |
| 20260508080030 | 6 | 66 | 9.7 | 22.5 | 0.00 | 0.89 | 0.00 | 98 | 1002.8 |
| 20260508074533 | 7 | 53 | 14.5 | 20.9 | 0.00 | 0.94 | 0.00 | 98 | 1002.6 |
| 20260508073026 | 7 | 67 | 17.7 | 22.5 | 0.00 | 0.94 | 0.00 | 99 | 1002.6 |
| 20260508071532 | 6 | 113 | 0.0 | 3.2 | 0.00 | 0.94 | 0.00 | 98 | 1002.6 |
| 20260508070024 | 6 | 113 | 0.0 | 3.2 | 0.00 | 0.94 | 0.00 | 98 | 1002.5 |
| 20260508064528 | 6 | 113 | 0.0 | 1.6 | 0.00 | 0.94 | 0.00 | 98 | 1002.5 |
| 20260508063023 | 6 | 113 | 0.0 | 3.2 | 0.00 | 0.94 | 0.00 | 98 | 1002.6 |
| 20260508061522 | 6 | 250 | 1.6 | 4.8 | 0.00 | 0.94 | 0.00 | 98 | 1002.7 |
| 20260508060026 | 6 | 250 | 0.0 | 3.2 | 0.00 | 0.94 | 0.00 | 98 | 1002.6 |
| 20260508054551 | 6 | 250 | 1.6 | 4.8 | 0.00 | 0.94 | 0.00 | 97 | 1002.4 |
| 20260508053020 | 7 | 250 | 0.0 | 1.6 | 0.00 | 0.94 | 0.00 | 98 | 1002.6 |
| 20260508051518 | 7 | 250 | 0.0 | 1.6 | 0.00 | 0.94 | 0.00 | 98 | 1002.1 |
| 20260508050022 | 7 | 250 | 0.0 | 3.2 | 0.00 | 0.94 | 0.00 | 98 | 1002.3 |
| 20260508044515 | 7 | 250 | 3.2 | 6.4 | 0.00 | 0.94 | 0.00 | 97 | 1002.4 |
| 20260508043014 | 7 | 159 | 1.6 | 8.0 | 0.00 | 0.94 | 0.00 | 98 | 1002.6 |
| 20260508041514 | 7 | 202 | 3.2 | 6.4 | 0.00 | 0.94 | 0.00 | 98 | 1002.6 |
| 20260508040013 | 6 | 170 | 0.0 | 6.4 | 0.00 | 0.94 | 0.00 | 97 | 1002.8 |
| 20260508034512 | 7 | 209 | 1.6 | 8.0 | 0.00 | 0.94 | 0.00 | 97 | 1002.9 |
| 20260508033013 | 7 | 259 | 6.4 | 11.3 | 0.00 | 0.94 | 0.00 | 96 | 1003.2 |
| 20260508031507 | 7 | 180 | 4.8 | 8.0 | 0.00 | 0.94 | 0.00 | 98 | 1003.2 |
| 20260508030002 | 6 | 218 | 4.8 | 11.3 | 0.00 | 0.94 | 0.94 | 98 | 1003.3 |
| 20260508024501 | 7 | 215 | 4.8 | 8.0 | 0.00 | 0.94 | 0.94 | 97 | 1003.1 |
| 20260508023000 | 7 | 240 | 3.2 | 8.0 | 0.00 | 0.94 | 0.94 | 97 | 1003.1 |
| 20260508021601 | 8 | 202 | 6.4 | 11.3 | 0.00 | 0.94 | 0.94 | 97 | 1002.7 |
| 20260508020108 | 8 | 205 | 8.0 | 11.3 | 0.00 | 0.94 | 0.94 | 97 | 1003.0 |
| 20260508014620 | 7 | 194 | 6.4 | 11.3 | 0.00 | 0.94 | 0.94 | 97 | 1003.2 |
| 20260508013100 | 7 | 215 | 4.8 | 6.4 | 0.00 | 0.94 | 0.94 | 96 | 1003.0 |
| 20260508011612 | 7 | 201 | 4.8 | 8.0 | 0.00 | 0.94 | 0.94 | 97 | 1003.0 |
| 20260508010054 | 6 | 242 | 6.4 | 11.3 | 0.00 | 0.94 | 0.94 | 96 | 1003.2 |
| 20260508004555 | 7 | 207 | 6.4 | 11.3 | 0.00 | 0.94 | 0.94 | 95 | 1003.6 |
| 20260508003053 | 7 | 257 | 11.3 | 12.9 | 0.00 | 0.94 | 0.94 | 95 | 1003.4 |
| 20260508001551 | 9 | 222 | 9.7 | 16.1 | 0.00 | 0.94 | 0.94 | 95 | 1003.1 |
| 20260508000050 | 10 | 169 | 4.8 | 20.9 | 0.00 | 0.94 | 0.94 | 96 | 1003.3 |
| 20260507234549 | 10 | 195 | 9.7 | 14.5 | 0.00 | 0.94 | 0.94 | 96 | 1003.3 |
| 20260507233049 | 10 | 201 | 11.3 | 19.3 | 0.00 | 0.94 | 0.94 | 96 | 1003.5 |
| 20260507231552 | 10 | 200 | 12.9 | 24.1 | 0.00 | 0.94 | 0.94 | 96 | 1003.5 |
| 20260507230048 | 10 | 190 | 12.9 | 24.1 | 0.00 | 0.94 | 0.94 | 96 | 1003.8 |
| 20260507224549 | 10 | 206 | 12.9 | 17.7 | 0.03 | 0.94 | 0.94 | 96 | 1003.5 |
| 20260507223047 | 9 | 205 | 8.0 | 16.1 | 0.03 | 0.94 | 0.94 | 96 | 1003.8 |
| 20260507221546 | 9 | 232 | 12.9 | 19.3 | 0.03 | 0.94 | 0.94 | 96 | 1003.9 |
| 20260507220045 | 10 | 184 | 6.4 | 20.9 | 0.03 | 0.94 | 0.94 | 95 | 1004.0 |
| 20260507214548 | 9 | 236 | 12.9 | 24.1 | 0.00 | 0.91 | 0.91 | 94 | 1004.0 |
| 20260507213043 | 9 | 172 | 6.4 | 22.5 | 0.05 | 0.91 | 0.91 | 93 | 1004.0 |
| 20260507211545 | 10 | 219 | 8.0 | 51.5 | 0.15 | 0.91 | 0.91 | 94 | 1003.1 |
| 20260507210041 | 10 | 140 | 29.0 | 45.1 | 0.23 | 0.91 | 0.91 | 94 | 1003.4 |
| 20260507204539 | 10 | 150 | 11.3 | 29.0 | 0.33 | 0.91 | 0.91 | 94 | 1004.1 |
| 20260507203038 | 9 | 223 | 6.4 | 16.1 | 0.30 | 0.86 | 0.86 | 94 | 1004.8 |
| 20260507201535 | 10 | 217 | 11.3 | 35.4 | 0.36 | 0.79 | 0.79 | 94 | 1004.9 |
| 20260507200034 | 10 | 184 | 17.7 | 35.4 | 0.38 | 0.69 | 0.69 | 96 | 1005.3 |
| 20260507194533 | 7 | 232 | 24.1 | 41.8 | 0.33 | 0.58 | 0.58 | 95 | 1006.4 |
| 20260507193034 | 8 | 223 | 17.7 | 40.2 | 0.43 | 0.53 | 0.53 | 90 | 1006.1 |
| 20260507191533 | 11 | 186 | 17.7 | 40.2 | 0.33 | 0.43 | 0.43 | 93 | 1005.7 |
| 20260507190028 | 11 | 157 | 22.5 | 35.4 | 0.23 | 0.30 | 0.30 | 93 | 1005.7 |
| 20260507184527 | 11 | 158 | 24.1 | 38.6 | 0.15 | 0.23 | 0.23 | 93 | 1006.2 |
| 20260507183040 | 11 | 207 | 20.9 | 40.2 | 0.03 | 0.10 | 0.10 | 92 | 1006.7 |